Location: Unspecified
(0.0000°N, 0.0000°E)
Time: 05:46:10
(UTC+00:00)

Explorer 7 - All Passes

Search period start: 27 May 2015 00:00
Search period end: 06 June 2015 00:00
Orbit: 488 x 694 km, 50.3° (Epoch: 26 May)

Date Brightness Start Highest point End Pass type
(mag) Time Alt. Az. Time Alt. Az. Time Alt. Az.
27 May - 03:47:34 10° NW 03:52:14 78° SW 03:57:08 10° SSE visible
27 May - 15:53:01 10° SW 15:56:56 45° NW 16:00:37 10° NNE daylight
28 May - 02:16:36 10° NNE 02:19:30 17° NE 02:22:41 10° E night (unlit)
28 May - 03:55:54 10° WNW 04:00:13 35° SW 04:04:40 10° SSE visible
28 May - 14:21:04 10° S 14:24:15 21° SE 14:27:23 10° ENE daylight
28 May - 16:01:55 10° W 16:04:52 19° NW 16:07:35 10° N daylight
29 May - 02:23:19 10° NNW 02:27:28 36° NE 02:31:53 10° ESE night (unlit)
29 May - 04:05:05 10° W 04:08:17 17° SW 04:11:23 10° S night (unlit)
29 May - 14:28:11 10° SSW 14:32:16 50° SE 14:36:06 10° NE daylight
30 May - 02:30:50 10° NW 02:35:22 81° NE 02:40:12 10° SE night (unlit)
30 May - 14:36:02 10° SW 14:40:11 63° NW 14:44:04 10° NNE daylight
31 May - 01:00:45 10° NNE 01:02:37 13° NE 01:04:47 10° E night (unlit)
31 May - 02:38:57 10° NW 02:43:19 45° SW 02:47:54 10° SSE night (unlit)
31 May - 13:04:37 10° S 13:07:24 17° SE 13:10:13 10° E daylight
31 May - 14:44:34 10° WSW 14:48:05 25° NW 14:51:21 10° N daylight
01 Jun - 01:06:52 10° N 01:10:36 27° NE 01:14:36 10° ESE night (unlit)
01 Jun - 02:47:47 10° W 02:51:20 21° SW 02:54:55 10° S night (unlit)
01 Jun - 13:11:25 10° SSW 13:15:27 38° SE 13:19:16 10° ENE daylight
01 Jun - 14:54:41 10° WNW 14:56:03 11° NW 14:57:09 10° NW daylight
02 Jun - 01:14:09 10° NNW 01:18:30 61° NE 01:23:08 10° SE night (unlit)
02 Jun - 13:19:02 10° SW 13:23:23 86° NW 13:27:26 10° NE daylight
03 Jun - 01:22:03 10° NW 01:26:23 58° SW 01:31:01 10° SSE night (unlit)
03 Jun - 11:48:17 10° SSE 11:50:29 14° SE 11:52:50 10° E daylight
03 Jun - 13:27:18 10° WSW 13:31:16 34° NW 13:34:57 10° NNE daylight
03 Jun - 23:50:33 10° N 23:53:42 20° NE 23:57:08 10° ESE night (unlit)
04 Jun - 01:30:36 10° WNW 01:34:22 26° SW 01:38:17 10° S night (unlit)
04 Jun - 11:54:40 10° S 11:58:34 30° SE 12:02:17 10° ENE daylight
04 Jun - 13:36:32 10° W 13:39:11 15° NW 13:41:33 10° NNW daylight
04 Jun - 23:57:31 10° NNW 00:01:35 45° NE 00:05:59 10° SE night (unlit)
05 Jun - 01:40:26 10° WSW 01:42:29 12° SW 01:44:19 10° SSW night (unlit)
05 Jun - 12:02:03 10° SSW 12:06:31 71° SE 12:10:39 10° NE daylight
